SCP
1 1 0 1 1 1 1 1 1 1 1 1 0 0 0 0 0 0 0 0 0 0 0 0 0 0 0 0 1 0 0 0 0 0 0 0 0 0 0 0 0 0 0
1 1 1 1 1 1 1 1 1 1 0 0 0 0 0 0 0 0 0 0 0 0 0 0 0 0 0 0 0 1 0 0 0 0 0 0 0 0 0 0 0 0 0
1 1 1 1 1 1 1 0 0 0 0 0 0 0 0 0 0 0 0 0 0 0 0 0 0 0 0 0 0 1 1 1 0 0 0 0 0 0 0 0 0 0 0
1 1 1 1 1 1 1 0 0 0 0 0 0 0 0 0 0 0 0 0 0 0 0 0 0 0 0 0 0 0 1 1 1 0 0 0 0 0 0 0 0 0 0
1 1 1 1 1 1 0 0 0 0 0 0 0 0 0 0 0 0 0 0 0 0 0 0 0 0 0 0 0 0 1 1 1 1 0 0 0 0 0 0 0 0 0
0 0 0 0 0 0 0 0 0 0 0 0 0 0 0 0 0 0 0 0 0 0 0 0 0 0 0 0 1 1 1 1 1 1 0 0 0 0 0 0 0 0 0
0 0 0 0 0 0 0 0 0 0 0 0 0 0 0 0 0 0 0 0 0 0 0 0 0 0 0 1 0 0 0 0 0 0 0 0 0 0 0 0 0 0 0
0 0 0 0 0 0 0 0 0 0 0 0 0 0 0 0 0 0 0 0 0 0 0 0 0 0 1 1 0 0 0 0 0 0 0 0 0 0 0 0 0 0 0
0 0 0 0 0 0 0 0 0 0 0 0 0 0 0 0 0 0 0 0 0 0 0 0 0 0 0 1 1 0 0 0 0 0 0 0 0 0 0 0 0 0 0
0 0 0 0 0 0 0 0 0 0 0 0 0 0 0 0 0 0 0 0 0 0 0 0 0 0 0 1 0 0 0 0 0 0 0 0 0 0 0 0 0 0 0
0 0 0 0 0 0 0 0 0 0 0 0 0 0 0 0 0 0 0 0 0 0 0 0 0 0 0 0 0 0 0 0 0 0 0 0 0 0 0 0 0 0 0
0 0 0 0 0 0 0 0 0 0 0 0 0 0 0 0 0 0 0 0 0 0 0 0 0 0 0 0 0 0 0 0 0 0 0 0 0 0 0 0 0 0 0
0 0 0 0 0 0 0 0 0 0 0 0 0 0 0 0 0 0 0 0 0 0 0 0 0 0 0 0 0 0 0 0 0 0 0 0 0 0 0 0 0 0 0
0 0 0 0 0 0 0 0 0 0 0 0 0 0 0 0 0 0 0 0 0 0 0 0 0 0 0 0 0 0 0 0 0 0 0 0 0 0 0 0 0 0 0
0 0 0 0 0 0 0 0 0 0 0 0 0 0 0 0 0 0 0 0 0 0 0 0 0 0 0 0 0 0 0 0 0 0 0 0 0 0 0 0 0 0 0
0 0 0 0 0 0 0 0 0 0 0 0 0 0 0 0 0 0 0 0 0 0 0 0 0 0 0 0 0 0 0 0 0 0 0 0 0 0 0 0 0 0 0
0 0 0 0 0 0 0 0 0 0 0 0 0 0 0 0 0 0 0 0 0 0 0 0 0 0 0 0 0 0 0 0 0 0 0 0 0 0 0 0 0 0 0
0 0 0 0 0 0 0 0 0 0 0 0 0 0 0 0 0 0 0 0 0 0 0 0 0 0 0 0 0 0 0 0 0 0 0 0 0 0 0 0 0 0 0
0 0 0 0 0 0 0 0 0 0 0 0 0 0 0 0 0 0 0 0 0 0 0 0 0 0 0 0 0 0 0 0 0 0 0 0 0 0 0 0 0 0 0
0 0 0 0 0 0 0 0 0 0 0 0 0 0 0 0 0 0 0 0 0 0 0 0 0 0 0 0 0 0 0 0 0 0 0 0 0 0 0 0 0 0 0
0 0 0 0 0 0 0 0 0 0 0 0 0 0 0 0 0 0 0 0 0 0 0 0 0 0 0 0 0 0 0 0 0 0 0 0 0 0 0 0 0 0 0
0 0 0 0 0 0 0 0 0 0 0 0 0 0 0 0 0 0 0 0 0 0 0 0 0 0 0 0 0 0 0 0 0 0 0 0 0 0 0 0 0 0 0
0 0 0 0 0 0 0 0 0 0 0 0 0 0 0 0 0 0 0 0 0 0 0 0 0 0 0 0 0 0 0 0 0 0 0 0 0 0 0 0 0 0 0
0 0 0 0 0 0 0 0 0 0 0 0 0 0 0 0 0 0 0 0 0 0 0 0 0 0 0 0 0 0 0 0 0 0 0 0 0 0 0 0 0 0 0
0 0 0 0 0 0 0 0 0 0 0 0 0 0 0 0 0 0 0 0 0 0 0 0 0 0 0 0 0 0 0 0 0 0 0 0 0 0 0 0 0 0 0
0 0 0 0 0 0 0 0 0 0 0 0 0 0 0 0 0 0 0 0 0 0 0 0 0 0 0 0 0 0 0 0 0 0 0 0 0 0 0 0 0 0 0
Wind_Speed
4 4 3 3 3 3 4 4 4 6 6 6 7 8 9 8 8 7 5 13 14 15 16 18 19 19 20 20 19 19 19 18 17 16 15 15 15 15 14 14 13 12 11
4 4 4 4 4 4 4 4 5 5 5 5 7 8 9 8 8 8 7 9 15 14 16 16 18 20 20 21 20 20 19 19 17 17 16 15 14 14 15 14 14 13 12
5 4 4 4 4 4 4 4 5 5 5 5 7 8 8 8 8 9 8 6 7 13 16 16 17 18 20 21 21 21 20 19 18 18 17 17 15 15 15 15 14 13 13
5 4 4 5 4 3 4 4 4 4 5 5 5 6 6 6 9 9 8 7 7 7 11 16 17 18 19 21 22 21 21 20 19 19 19 18 17 16 16 15 15 14 14
4 4 4 4 3 3 3 4 3 3 4 5 5 6 6 6 7 8 9 9 9 8 7 10 15 17 19 20 21 22 21 21 21 20 21 20 19 18 17 16 15 15 14
2 2 2 3 2 2 3 3 4 4 4 4 5 5 5 6 6 7 9 8 8 10 9 9 8 10 17 18 19 21 22 22 22 22 22 21 20 19 18 17 16 16 16
1 2 2 2 2 3 3 3 3 4 4 3 2 3 4 6 7 7 7 7 8 9 9 9 8 7 7 16 18 20 22 22 22 22 22 21 21 20 19 19 18 17 17
1 2 3 3 3 2 3 3 2 2 2 2 2 2 3 3 4 7 6 7 8 7 9 11 9 9 8 7 11 19 21 22 21 22 22 21 21 20 20 20 19 18 17
2 2 2 2 3 3 3 3 3 4 3 2 3 3 3 3 3 3 5 6 6 6 8 8 11 11 11 8 8 14 19 19 20 21 21 21 20 20 20 20 20 19 19
3 2 2 2 2 3 3 4 4 3 3 3 2 3 3 3 2 3 2 3 5 7 7 8 9 10 10 9 10 13 16 17 19 21 21 21 20 20 20 20 21 20 20
3 3 2 2 2 3 3 4 3 4 4 3 3 2 3 3 4 3 4 3 2 3 5 7 6 7 9 9 9 12 15 16 18 19 19 20 20 20 20 21 21 21 21
3 3 3 2 3 3 3 4 4 5 5 4 4 3 3 2 2 3 4 3 3 3 3 4 6 6 7 8 11 14 15 16 16 17 17 18 19 20 20 21 21 21 21
3 4 3 3 3 4 4 4 4 5 5 5 5 4 4 4 3 2 3 3 3 2 3 3 4 5 6 6 8 13 14 15 15 16 16 16 16 17 18 18 19 19 19
4 5 4 5 5 5 5 4 4 5 5 6 6 6 4 4 4 3 3 2 3 2 3 3 2 4 4 5 8 12 10 14 14 14 14 14 14 14 15 15 15 14 14
5 5 5 5 5 5 5 4 4 6 5 6 6 6 5 4 4 4 3 3 3 3 3 3 2 2 3 3 6 7 7 11 14 14 13 13 13 13 13 12 12 12 12
5 6 6 6 6 6 5 5 5 5 6 6 5 6 6 4 4 4 4 4 4 4 4 2 2 2 2 3 4 5 6 11 12 13 12 12 12 12 12 11 11 10 10
5 6 6 6 6 7 6 5 6 6 7 7 6 7 7 6 5 4 4 3 4 4 5 3 2 1 2 3 3 3 4 6 6 11 12 12 11 11 11 10 10 9 8
6 6 6 6 7 7 6 6 8 7 7 8 8 7 8 6 7 5 4 4 4 4 4 4 2 1 2 3 4 5 4 4 5 9 11 12 11 11 11 10 9 8 7
7 7 6 7 7 7 7 7 8 8 8 9 8 8 9 8 8 6 6 5 4 4 3 3 3 2 1 2 4 4 5 4 5 7 10 10 11 11 10 10 9 9 8
7 7 7 7 8 8 8 8 8 8 8 9 8 9 9 9 9 8 7 6 5 4 4 3 3 2 2 3 4 5 4 4 5 5 6 7 9 10 10 10 9 9 8
8 7 8 8 8 7 7 8 7 8 8 9 8 8 9 11 12 9 7 7 6 5 4 4 3 2 2 3 4 4 5 5 4 4 5 5 6 6 6 8 9 9 8
7 7 8 8 8 8 9 11 9 8 8 9 9 8 9 11 12 13 12 11 10 8 7 5 4 4 4 3 3 5 6 6 5 4 5 5 4 5 4 4 6 8 8
7 8 8 8 9 10 12 12 12 8 8 8 9 8 7 7 9 8 9 11 12 12 11 7 6 5 5 5 5 6 6 6 4 7 6 5 4 4 4 4 7 7 7
7 7 8 9 8 10 11 11 12 8 7 8 9 9 8 7 7 8 8 8 8 9 10 8 7 6 5 6 6 5 6 5 5 5 4 4 4 4 4 4 6 7 7
8 8 8 8 8 10 11 11 9 5 6 8 8 9 9 8 9 10 8 8 7 6 7 8 7 6 6 8 7 5 6 7 5 4 2 4 5 4 3 3 4 7 7
8 8 8 8 8 9 10 10 8 4 5 6 6 7 10 10 9 11 8 8 8 6 6 6 5 4 4 6 9 7 7 7 6 4 4 5 5 5 4 3 3 4 5
Wind_Direction
220 218 227 227 233 234 235 234 235 243 244 239 238 239 237 231 229 225 228 234 235 231 230 225 218 214 210 206 204 203 202 201 197 195 195 196 193 189 189 189 187 184 183
222 223 230 230 231 233 234 234 235 239 242 235 240 241 242 238 233 230 227 235 237 233 229 228 222 217 215 211 207 205 204 204 201 198 197 198 197 194 193 194 192 189 188
222 220 227 232 231 232 236 242 245 239 242 236 238 239 239 237 232 230 230 227 234 235 230 227 224 219 216 214 211 209 206 205 203 201 200 200 200 197 196 196 195 193 192
225 217 225 234 230 227 231 239 244 244 244 241 240 240 237 237 237 233 231 227 224 232 234 230 226 220 217 216 215 213 210 207 205 204 203 202 202 201 199 198 197 196 195
226 217 224 233 227 225 227 238 237 234 243 246 244 243 239 237 237 238 235 229 223 225 228 233 228 222 220 219 217 215 213 211 208 206 206 205 204 203 202 201 200 199 198
233 218 222 232 221 226 229 225 232 232 238 242 253 254 244 239 236 235 236 233 226 225 226 229 224 225 223 221 218 216 216 215 211 209 208 207 207 205 204 203 202 202 202
240 225 231 230 219 223 233 226 220 229 233 214 231 263 258 241 236 235 231 229 228 225 221 222 218 217 220 220 219 217 218 217 213 211 210 209 208 206 205 205 204 204 204
251 233 226 234 227 221 234 235 214 223 234 196 197 239 280 278 246 234 227 226 229 224 224 224 218 214 214 210 214 215 218 218 216 213 211 209 209 207 205 206 206 205 205
281 270 246 233 229 217 223 222 209 210 229 233 211 209 226 252 287 262 232 229 225 219 223 222 218 214 212 208 210 214 216 216 217 216 213 211 209 208 206 207 207 207 207
311 298 272 245 233 227 230 229 208 203 205 225 230 231 233 233 251 288 282 246 233 226 224 225 222 215 212 209 208 208 210 211 215 216 214 212 209 208 208 208 209 209 209
307 303 286 260 246 238 238 234 214 207 204 208 210 212 230 239 235 245 272 276 264 241 228 227 224 216 211 208 208 210 207 208 210 214 214 212 209 208 209 210 211 212 211
294 294 289 272 260 251 244 237 226 218 215 216 216 211 208 213 223 233 252 266 270 269 252 234 225 219 211 206 212 209 206 206 207 209 210 210 209 208 208 209 212 214 214
287 282 280 268 261 255 251 239 230 229 221 218 217 217 217 221 216 228 246 260 267 276 272 249 229 219 213 203 208 207 207 203 204 204 205 206 205 204 204 206 209 212 214
270 275 274 266 262 259 258 244 238 236 227 225 227 220 220 226 220 217 223 233 263 267 255 255 250 221 212 201 202 200 205 199 198 198 198 199 198 196 196 198 201 205 207
277 279 277 272 269 264 258 249 243 242 231 228 229 226 227 229 223 222 221 217 223 252 260 251 251 238 207 197 192 192 192 188 187 187 187 189 189 188 187 188 192 196 200
282 285 280 273 271 268 260 250 251 251 240 235 228 227 229 229 225 222 220 223 219 228 254 252 247 260 227 201 177 181 179 171 175 173 173 173 175 175 176 178 182 186 189
286 283 279 275 270 266 261 252 251 251 245 244 238 229 231 224 221 222 218 218 221 218 240 252 251 246 214 180 155 158 157 161 163 162 162 161 159 159 159 160 162 166 171
289 285 283 280 274 268 260 254 256 254 246 244 240 233 235 228 222 220 214 218 221 221 227 236 234 229 207 175 158 149 143 147 147 150 150 148 147 147 147 147 150 153 157
290 289 285 280 277 273 266 258 254 254 249 244 239 232 232 224 223 219 216 217 219 223 221 221 224 216 205 164 147 135 131 126 130 137 138 139 140 139 138 139 142 147 150
289 288 286 280 275 273 269 263 256 254 253 249 241 235 232 224 221 217 216 215 211 212 212 212 210 208 198 174 163 152 145 137 131 131 127 129 132 131 133 135 138 143 146
292 289 289 285 280 273 263 258 254 254 250 250 246 238 234 230 225 216 213 207 202 201 203 205 205 195 194 181 176 161 155 140 124 132 133 134 133 131 131 133 134 139 143
292 292 289 286 284 279 277 272 266 259 252 248 247 241 237 237 233 224 218 208 199 195 198 199 202 199 200 193 175 165 156 156 156 152 142 138 140 133 129 130 132 138 142
293 293 290 287 283 280 278 277 274 264 251 245 241 237 237 230 220 220 219 216 210 205 197 191 197 202 191 187 177 172 173 165 152 154 143 137 138 130 122 119 130 135 138
294 291 289 288 285 284 282 280 278 268 254 246 239 234 231 232 221 210 212 214 212 210 206 199 197 199 194 183 181 174 162 134 110 136 141 137 142 133 124 124 129 133 134
297 293 290 289 285 284 283 282 278 264 255 253 245 236 228 227 221 205 204 208 210 214 211 201 192 192 187 178 168 149 152 152 143 149 146 131 135 126 125 130 129 131 130
292 295 293 289 283 282 283 282 278 254 253 255 250 240 227 223 220 203 202 202 205 203 187 183 183 185 184 184 178 173 166 164 150 155 164 141 140 141 138 134 135 135 129